Location: Unspecified
(47.6579°N, 23.5637°E)
Time: 07:38:50
(UTC+02:00)

Envisat - Visible Passes

Search period start: 30 November 2021 00:00
Search period end: 10 December 2021 00:00
Orbit: 764 x 766 km, 98.2° (Epoch: 29 November)

Date Brightness Start Highest point End Pass type
(mag) Time Alt. Az. Time Alt. Az. Time Alt. Az.
30 Nov 4.1 05:02:17 10° NNE 05:07:10 43° E 05:11:58 10° S visible
30 Nov 3.8 06:41:41 10° N 06:45:59 28° WNW 06:50:17 10° WSW visible
30 Nov 6.0 18:01:47 10° WSW 18:04:37 15° W 18:07:30 10° NW visible
01 Dec 5.3 04:26:07 10° NE 04:29:59 21° E 04:33:50 10° SE visible
01 Dec 3.0 06:04:23 10° N 06:09:22 56° WNW 06:14:19 10° SSW visible
01 Dec 5.1 17:22:54 10° SSW 17:27:22 30° W 17:31:51 10° NNW visible
02 Dec 3.2 05:27:26 10° NNE 05:32:33 73° ESE 05:37:36 10° S visible
02 Dec 4.3 07:07:35 10° NNW 07:11:00 19° WNW 07:14:26 10° W visible
03 Dec 4.5 04:50:52 10° NNE 04:55:32 35° E 05:00:09 10° SSE visible
03 Dec 3.5 06:29:56 10° N 06:34:31 35° WNW 06:39:05 10° SW visible
03 Dec 5.8 17:49:25 10° SW 17:52:56 19° W 17:56:28 10° NW visible
04 Dec 5.6 04:15:00 10° NE 04:18:18 17° E 04:21:37 10° SE visible
04 Dec 2.9 05:52:46 10° N 05:57:50 69° WNW 06:02:52 10° SSW visible
04 Dec 4.7 17:11:02 10° SSW 17:15:44 38° W 17:20:28 10° NNW visible
05 Dec 3.5 05:15:56 10° NNE 05:20:58 58° E 05:25:58 10° S visible
05 Dec 4.1 06:55:43 10° N 06:59:35 22° WNW 07:03:27 10° WSW visible
05 Dec 6.3 18:17:20 10° W 18:18:36 11° W 18:19:52 10° WNW visible
06 Dec 4.9 04:39:30 10° NE 04:43:53 28° E 04:48:13 10° SSE visible
06 Dec 3.3 06:18:16 10° N 06:23:03 42° WNW 06:27:47 10° SW visible
06 Dec 5.6 17:37:15 10° SW 17:41:15 23° W 17:45:17 10° NW visible
07 Dec 5.9 04:04:04 10° ENE 04:06:36 14° E 04:09:08 10° ESE visible
07 Dec 2.9 05:41:11 10° NNE 05:46:18 85° WNW 05:51:23 10° SSW visible
07 Dec 4.5 07:21:53 10° NNW 07:24:33 14° NW 07:27:14 10° W visible
07 Dec 4.2 16:59:14 10° S 17:04:06 47° W 17:09:02 10° NNW visible
08 Dec 3.9 05:04:27 10° NNE 05:09:22 46° E 05:14:14 10° S visible
08 Dec 3.9 06:43:55 10° N 06:48:09 27° WNW 06:52:21 10° WSW visible
08 Dec 6.0 18:04:16 10° WSW 18:06:52 14° W 18:09:29 10° NW visible
09 Dec 5.2 04:28:13 10° NE 04:32:13 23° E 04:36:12 10° SE visible
09 Dec 3.1 06:06:36 10° N 06:11:32 52° WNW 06:16:27 10° SW visible
09 Dec 5.2 17:25:13 10° SSW 17:29:35 29° W 17:33:59 10° NW visible
